Flag for Japan Weather past 2 weeks in Kagoshima, Japan

Now
49 °F

Cool.


Feels Like: 46 °F
Forecast: 43 / 52 °F
Wind: 6 mph from North

Location: Kagoshima

Current Time: Jan 29, 2015 at 9:28:07 PM

Latest Report: Jan 29, 2015 at 8:00 PM


Visibility: N/A

Pressure: 30.17 "Hg

Humidity: 90%

Dew point: 46 °F

Location of KagoshimaLocation

Historic Weather in Kagoshima — Graph

°F

Kagoshima temperature yesterday

Maximum temperature yesterday: 51 °F (at 2:00 PM)
Minimum temperature yesterday: 44 °F (at 7:00 AM)
Average temperature yesterday: 48 °F

Past Weeks' High & Low Weather Summary

 TemperatureHumidityPressure
High62 °F (Jan 15, 2:00 AM)98% (Jan 26, 11:00 AM)30.39 "Hg (Jan 26, 11:00 AM)
Low35 °F (Jan 18, 8:00 AM)28% (Jan 17, 4:00 PM)29.75 "Hg (Jan 15, 4:00 AM)
Average50 °F69%30.15 "Hg
* Reported Jan 14 8:00 PM — Jan 29 8:00 PM, Kagoshima, Weather by CustomWeather, © 2014

Note: Actual official high and low records may vary slightly from our data, if they occured in-between our weather recording intervals... More about our weather records

Advertising

Kagoshima weather history for previous 24 hours

 ConditionsComfort  
Time TempWeatherWind HumidityBarometerVisibility
8:00 PM
Jan 29
49 °FCool.6 mph90%30.17 "HgN/A
7:00 PM49 °FCool.8 mph83%30.17 "HgN/A
6:00 PM49 °FOvercast.7 mph80%30.14 "Hg6 mi
5:00 PM49 °FCool.6 mph80%30.15 "HgN/A
4:00 PM49 °FCool.8 mph81%30.16 "HgN/A
3:00 PM49 °FLight rain. Overcast.10 mph77%30.16 "Hg9 mi
2:00 PM51 °FCool.7 mph74%30.16 "HgN/A
1:00 PM51 °FCool.8 mph67%30.18 "HgN/A
12:00 PM52 °FOvercast.6 mph61%30.21 "Hg19 mi
11:00 AM52 °FCool.9 mph59%30.25 "HgN/A
10:00 AM51 °FCool.9 mph58%30.27 "HgN/A
9:00 AM49 °FOvercast.9 mph63%30.27 "Hg12 mi
8:00 AM47 °FCool.8 mph64%30.26 "HgN/A
7:00 AM47 °FCool.10 mph63%30.26 "HgN/A
6:00 AM48 °FPassing clouds.9 mph61%30.25 "Hg9 mi
5:00 AM47 °FCool.8 mph58%30.23 "HgN/A
4:00 AM47 °FCool.6 mph58%30.24 "HgN/A
3:00 AM48 °FOvercast.7 mph59%30.24 "Hg6 mi
2:00 AM48 °FCool.7 mph59%30.25 "HgN/A
1:00 AM48 °FCool.8 mph62%30.24 "HgN/A
12:00 AM47 °FCool.7 mph69%30.24 "HgN/A
11:00 PM
Jan 28
45 °FCool.8 mph68%30.25 "HgN/A
10:00 PM45 °FCool.7 mph61%30.24 "HgN/A
9:00 PM46 °FOvercast.6 mph57%30.23 "Hg6 mi
Weather by CustomWeather, © 2014

See weather overviewHow to use our weather pages